Tracking 19476 objects as of 18-Jan-2019
HD Live streaming from Space Station
objects crossing your sky now

COSMOS 926

Track COSMOS 926 now!
10-day predictions
COSMOS 926 is classified as:


NORAD ID: 10137
Int'l Code: 1977-062A
Perigee: 974.9 km
Apogee: 1,021.9 km
Inclination: 82.9 °
Period: 104.9 minutes
Semi major axis: 7369 km
RCS: 1.8159 m2 (large)
Launch date: July 8, 1977
Source: Commonwealth of Independent States (former USSR) (CIS)
Launch site: PLESETSK MISSILE AND SPACE COMPLEX (PKMTR)
aabbcc
Your satellite tracking list
Your tracking list is empty




NASA's NSSDC Master Catalog

Two Line Element Set (TLE):
1 10137U 77062A   19017.91474194  .00000058  00000-0  47150-4 0  9995
2 10137  82.9400 204.6546 0031901 329.5788 139.1549 13.72309272 79307
Source of the keplerian elements: AFSPC